Location: Appletree Creek
(38.7363°N, 122.6833°W)
Time: 09:47:56
(UTC+00:00)

Cosmos 1500 - Pass Details

Date: 18 September 2020
Orbit: 498 x 520 km, 82.5° (Epoch: 21 October)

Event Time Altitude Azimuth Distance (km) Brightness Sun altitude
Rises 12:43:37 0° 344° (NNW) 2,648 6.8 -14.7°
Reaches altitude 10° 12:45:52 10° 336° (NNW) 1,753 5.8 -14.2°
Maximum altitude 12:49:26 38° 268° (W) 795 3.6 -13.6°
Drops below altitude 10° 12:52:58 10° 199° (SSW) 1,728 5.6 -12.9°
Sets 12:55:10 0° 191° (S) 2,605 6.5 -12.5°
